Regional Weather Roundup
Issued by NWS

Home | Current Version | Previous Version | Text Only | Print | Product List | Glossary Off
Versions: 1 2 3 4 5 6 7 8 9 10 11 12 13 14 15 16 17 18 19 20 21 22 23 24 25 26 27 28 29 30 31 32 33 34 35 36 37 38 39 40 41 42 43 44 45 46 47 48 49 50

000
ASUS43 KLOT 221800
RWRIL

ILLINOIS REGIONAL WEATHER ROUNDUP
NATIONAL WEATHER SERVICE CHICAGO/ROMEOVILLE IL
1200 PM CST SAT NOV 22 2014

NOTE: "FAIR" INDICATES FEW OR NO CLOUDS BELOW 12,000 FEET WITH NO
SIGNIFICANT WEATHER AND/OR OBSTRUCTIONS TO VISIBILITY.

* THESE STATIONS ARE NOT UNDER NWS QUALITY CONTROL. THEY ALSO MAY NOT
  REPORT WEATHER SUCH AS PRECIPITATION OR FOG.

ILZ001-002-007-009-015-016-024-221900-
NORTHWEST ILLINOIS

CITY           SKY/WX    TMP DP  RH WIND       PRES   REMARKS
MOLINE         CLOUDY    51  46  83 SW10G21   29.87F
6HR MIN TEMP:  40; 6HR MAX TEMP:  51;

STERLING*      CLOUDY    48  45  87 SW5       29.89F
$$

ILZ003-004-008-010-011-017-018-221900-
NORTH CENTRAL ILLINOIS

CITY           SKY/WX    TMP DP  RH WIND       PRES   REMARKS
ROCKFORD       CLOUDY    44  41  89 S12       29.90F FOG
6HR MIN TEMP:  34; 6HR MAX TEMP:  44; 6HR PCP:  0.01;

$$

ILZ005-006-012>014-019>023-221900-
NORTHEAST ILLINOIS

CITY           SKY/WX    TMP DP  RH WIND       PRES   REMARKS
CHICAGO-OHARE  CLOUDY    42  38  85 S13       29.93F FOG
6HR MIN TEMP:  35; 6HR MAX TEMP:  42; 6HR PCP:  0.01;

CHICAGO-MIDWAY CLOUDY    45  39  79 S8        29.95F
6HR MIN TEMP:  37; 6HR MAX TEMP:  45; 6HR PCP:  0.01;

AURORA         CLOUDY    45  39  79 S13       29.93F HAZE
6HR MIN TEMP:  36; 6HR MAX TEMP:  45; 6HR PCP:  0.01;

WAUKEGAN       CLOUDY    41  40  96 S14       29.89F FOG
6HR MIN TEMP:  34; 6HR MAX TEMP:  41; 6HR PCP:  0.01;

DUPAGE AIRPORT CLOUDY    43  40  89 S9        29.92F FOG
6HR MIN TEMP:  34; 6HR MAX TEMP:  43; 6HR PCP:  0.01;

WHEELING       CLOUDY    41  39  93 S12       29.95F FOG
6HR MIN TEMP:  35; 6HR MAX TEMP:  41; 6HR PCP: TRACE;

NORTHERLY ISL    N/A     44  38  79 SW10        N/A
$$

LMZ740>746-221900-
SOUTHERN LAKE MICHIGAN

STATION/POSITION SKY/WX   TEMP    WIND        PRES    VSBY  WAVE
                          AIR SEA DIR/SP/G                  HT/PER
                          (F)     (DEG/KT/KT) (MB)    (MI)  (FT/S)
SOUTHERN BUOY              41 42  210/ 19/ 23 1014.7F         5/ 6
WAUKEGAN HARBOR            41     200/ 14/ 16   N/A
HARRISON CRIB              41     190/ 18/ 22   N/A
BURNHAM HARBOR             44     180/  8/ 12   N/A
CALUMET HARBOR             43     180/  8/ 13 1013.4F
MICHIGAN CITY              43     170/ 17/ 23   N/A
$$

ILZ025>027-034>036-040-047-049-050-058-095>099-221900-
WEST-CENTRAL ILLINOIS

CITY           SKY/WX    TMP DP  RH WIND       PRES   REMARKS
QUINCY         PTSUNNY   57  48  72 SW21      29.94F
$$

ILZ028>032-037-038-041>044-048-051>054-059>061-221900-
CENTRAL ILLINOIS

CITY           SKY/WX    TMP DP  RH WIND       PRES   REMARKS
DECATUR        CLOUDY    57  46  66 SW22G31   30.02F
PEORIA         CLOUDY    55  45  68 SW12      29.95F
6HR MIN TEMP:  41; 6HR MAX TEMP:  55;

SPRINGFIELD    CLOUDY    57  46  66 S20G28    29.99F
6HR MIN TEMP:  41; 6HR MAX TEMP:  57;

TAYLORVILLE    NOT AVBL
$$

ILZ033-039-045-046-055>057-062-063-221900-
EAST-CENTRAL ILLINOIS

CITY           SKY/WX    TMP DP  RH WIND       PRES   REMARKS
CHAMPAIGN      PTSUNNY   56  47  71 SW24      30.02F
MATTOON        CLOUDY    54  44  69 S12G23    30.05F
$$

ILZ079-100>102-221900-
SOUTHWEST ILLINOIS

CITY           SKY/WX    TMP DP  RH WIND       PRES   REMARKS
ALTON          CLOUDY    55  45  67 S16G23    30.04F
CAHOKIA*       CLOUDY    60  45  57 S17G28    30.04F
$$

ILZ064>066-069>071-074>076-080>082-084>086-088>090-092>094-221900-
SOUTH-CENTRAL ILLINOIS

CITY           SKY/WX    TMP DP  RH WIND       PRES   REMARKS
CARBONDALE     PTSUNNY   61  44  53 S17G29    30.12F
6HR MIN TEMP:  47; 6HR MAX TEMP:  61;

MARION         PTSUNNY   61  45  55 S15       30.13F
MT. VERNON     CLOUDY    59  45  58 S23G29    30.12F
$$

ILZ067-068-072-073-078-083-087-091-221900-
SOUTHEAST ILLINOIS

CITY           SKY/WX    TMP DP  RH WIND       PRES   REMARKS
LAWRENCEVILLE  CLOUDY    59  44  57 S25G32    30.13F
$$

ABBREVIATIONS USED IN REMARKS
   TC - TEMPERATURE IN CELSIUS
  WCI - WIND CHILL INDEX
   HX - HEAT INDEX
  VSB - VISIBILITY
$$



USA.gov is the U.S. government's official web portal to all federal, state and local government web resources and services.